Regional Weather Roundup
Issued by NWS New Orleans/Baton Rouge, LA

Home | Current Version | Previous Version | Text Only | Print | Product List | Glossary On
Versions: 1 2 3 4 5 6 7 8 9 10 11 12 13 14 15 16 17 18 19 20 21 22 23 24 25 26 27 28 29 30 31 32 33 34 35 36 37 38 39 40 41 42 43 44 45 46 47 48 49 50
000
ASUS44 KLIX 152113
RWRLIX
NEW ORLEANS REGIONAL WEATHER ROUNDUP
NATIONAL WEATHER SERVICE NEW ORLEANS LA
300 PM CST FRI DEC 15 2017

NOTE: "FAIR" INDICATES FEW OR NO CLOUDS BELOW 12,000 FEET WITH NO
      SIGNIFICANT WEATHER AND/OR OBSTRUCTIONS TO VISIBILITY.
      SKY/WX - SKY CONDITION AND SIGNIFICANT WEATHER.
      TMP - AIR TEMPERATURE.     DP    - DEWPOINT TEMPERATURE.
      RH  - RELATIVE HUMIDITY.   PRES  - PRESSURE.
      HI  - HEAT INDEX.          WCI   - WIND CHILL INDEX.

*  THESE STATIONS ARE NOT NWS OR FAA STATIONS AND ARE NOT UNDER
   NWS QUALITY CONTROL.

LAZ038-040-048-061>063-065>067-069-152200-
SOUTHEAST LOUISIANA

CITY           SKY/WX    TMP DP  RH WIND       PRES   REMARKS
N.O. INTL ARPT CLOUDY    49  37  63 N7        30.21S
N.O. LAKEFRONT CLOUDY    49  38  65 N12       30.22R
N.O. DOWNTOWN* CLOUDY    49  37  63 VRB6      30.22S
RESERVE*         N/A     49  35  56 N7        30.21R
SLIDELL        CLOUDY    48  35  60 N5        30.19S
BATON ROUGE    CLOUDY    48  31  51 N7        30.22S
BOOTHVILLE     CLOUDY    51  43  74 N10       30.18S
BELLE CHASSE   LGT RAIN  47  42  83 N5        30.20S
BOGALUSA*      MOCLDY    48  32  53 MISG      30.21F
GALLIANO*      CLOUDY    48  40  73 N8        30.19R
NEW ROADS*       N/A     48  31  52 NE5       30.22F
GONZALES*      DRIZZLE   47  35  63 N7        30.22R
HAMMOND*       CLOUDY    46  32  57 N8        30.21S
HOUMA*         CLOUDY    46  41  81 N9        30.21R
PORT FOURCHON* PTCLDY    50  43  76 N12       30.19R

$$

MSZ070-080>082-152200-
SOUTHERN MISSISSIPPI

CITY           SKY/WX    TMP DP  RH WIND       PRES   REMARKS
MCCOMB         MOSUNNY   46  30  53 N7        30.21S
GULFPORT       CLOUDY    48  35  60 N15       30.20R
BILOXI         LGT RAIN  48  36  64 N10       30.20R
PASCAGOULA     CLOUDY    49  33  54 N9        30.18R
STENNIS ARPT*  DRIZZLE   46  36  66 N9        30.20R

$$

COASTAL OBSERVATIONS
LAKE AND NEARSHORE STATIONS

STATION/POSITION TIME  TEMP    WIND        PRES    WAVE
                       AIR SEA DIR/SP/G            HT/PER
                 (UTC) (F)     (DEG/KT/KT) (MB)    (FT/S)
PASCAGOULA       2048   49     360/  6/ 10 1021.4
WAVELAND YACHT   2048   48 52  360/ 13/ 15 1022.3
GRAND ISLE       2042   49 59   30/ 12/ 15 1021.6
SOUTHWEST PASS   2048           30/ 20/ 22   N/A
NEW CANAL        2042   48 54   10/  9/ 11 1022.6
SHELL BEACH      2042   48 55   10/  8/  9 1022.4

OFFSHORE STATIONS

STATION/POSITION TIME  TEMP    WIND        PRES    WAVE
                       AIR SEA DIR/SP/G            HT/PER
                 (UTC) (F)     (DEG/KT/KT) (MB)    (FT/S)
64 S DAUPHIN ISL 2050   58 71   10/ 17/ 23 1020.8    5/ 5

$$




USA.gov is the U.S. government's official web portal to all federal, state and local government web resources and services.